When you browse on this site, cookies collect data to enhance your experience and personalize the content and advertising you see.
Visit our Privacy Policy to learn more. By continuing to use the site, you agree to this use of cookies and data.

Hourly Weather Wilmington

Today, 11 August, Tuesday

Time Temperature Precipitation Wind Pressure Humidity
00:00 +26°C° 0.1 mm 2 mps 760 mmHg 85%
01:00 +26°C° 0.1 mm 2 mps 761 mmHg 85%
02:00 +26°C° 0 mm 2 mps 760 mmHg 86%
03:00 +25°C° 0 mm 2 mps 760 mmHg 86%
04:00 +25°C° 0 mm 1 mps 760 mmHg 87%
05:00 +25°C° 0 mm 2 mps 760 mmHg 86%
06:00 +26°C° 0 mm 2 mps 760 mmHg 85%
07:00 +27°C° 0 mm 2 mps 760 mmHg 84%
08:00 +28°C° 0.1 mm 2 mps 760 mmHg 76%
09:00 +30°C° 0.1 mm 2 mps 760 mmHg 68%
10:00 +32°C° 0.1 mm 2 mps 760 mmHg 60%
11:00 +34°C° 0.1 mm 3 mps 760 mmHg 57%
12:00 +34°C° 0.1 mm 3 mps 760 mmHg 55%
13:00 +35°C° 0.1 mm 4 mps 759 mmHg 52%
14:00 +35°C° 0.1 mm 4 mps 759 mmHg 54%
15:00 +35°C° 0.1 mm 3 mps 759 mmHg 55%
16:00 +34°C° 0.1 mm 3 mps 758 mmHg 57%
17:00 +33°C° 0.2 mm 3 mps 759 mmHg 62%
18:00 +31°C° 0.2 mm 3 mps 759 mmHg 66%
19:00 +29°C° 0.2 mm 2 mps 759 mmHg 71%
20:00 +29°C° 0 mm 2 mps 759 mmHg 74%
21:00 +28°C° 0 mm 2 mps 759 mmHg 78%
22:00 +27°C° 0 mm 2 mps 759 mmHg 81%
23:00 +27°C° 0.2 mm 2 mps 759 mmHg 83%

Tomorrow, 12 August, Wednesday

Time Temperature Precipitation Wind Pressure Humidity
00:00 +27°C° 0.2 mm 2 mps 759 mmHg 84%
01:00 +26°C° 0.2 mm 2 mps 759 mmHg 86%
02:00 +26°C° 0 mm 1 mps 759 mmHg 86%
03:00 +26°C° 0 mm 1 mps 760 mmHg 86%
04:00 +26°C° 0 mm 1 mps 760 mmHg 87%
05:00 +27°C° 0 mm 1 mps 760 mmHg 85%
06:00 +27°C° 0 mm 1 mps 761 mmHg 83%
07:00 +28°C° 0 mm 1 mps 761 mmHg 81%
08:00 +30°C° 0.5 mm 1 mps 761 mmHg 74%
09:00 +32°C° 0.5 mm 2 mps 761 mmHg 67%
10:00 +34°C° 0.5 mm 2 mps 761 mmHg 60%
11:00 +35°C° 0.6 mm 2 mps 761 mmHg 57%
12:00 +35°C° 0.6 mm 2 mps 761 mmHg 55%
13:00 +36°C° 0.6 mm 2 mps 761 mmHg 53%
14:00 +35°C° 0.1 mm 2 mps 761 mmHg 55%
15:00 +35°C° 0.1 mm 2 mps 760 mmHg 57%
16:00 +34°C° 0.1 mm 2 mps 760 mmHg 59%
17:00 +32°C° 0.2 mm 2 mps 761 mmHg 63%
18:00 +31°C° 0.2 mm 2 mps 761 mmHg 68%
19:00 +30°C° 0.2 mm 2 mps 761 mmHg 72%
20:00 +29°C° 0.8 mm 2 mps 761 mmHg 75%
21:00 +29°C° 0.8 mm 2 mps 762 mmHg 78%
22:00 +28°C° 0.8 mm 2 mps 762 mmHg 81%
23:00 +28°C° 0.7 mm 1 mps 762 mmHg 82%

Day after tomorrow, 13 August, Thursday

Time Temperature Precipitation Wind Pressure Humidity
00:00 +27°C° 0.7 mm 1 mps 762 mmHg 83%
01:00 +27°C° 0.7 mm 1 mps 762 mmHg 84%
02:00 +27°C° 0.1 mm 1 mps 762 mmHg 84%
03:00 +27°C° 0.1 mm 1 mps 762 mmHg 85%
04:00 +26°C° 0.1 mm 1 mps 762 mmHg 85%
05:00 +26°C° 0.1 mm 1 mps 762 mmHg 84%
06:00 +27°C° 0.1 mm 1 mps 763 mmHg 82%
07:00 +27°C° 0.1 mm 1 mps 763 mmHg 81%
08:00 +27°C° 1.2 mm 1 mps 763 mmHg 82%
09:00 +26°C° 1.2 mm 2 mps 763 mmHg 82%
10:00 +26°C° 1.2 mm 2 mps 763 mmHg 83%
11:00 +26°C° 0.3 mm 2 mps 763 mmHg 82%
12:00 +26°C° 0.3 mm 2 mps 763 mmHg 82%
13:00 +26°C° 0.3 mm 2 mps 763 mmHg 81%
14:00 +27°C° 0 mm 2 mps 763 mmHg 80%
15:00 +27°C° 0 mm 2 mps 762 mmHg 78%
16:00 +28°C° 0 mm 2 mps 762 mmHg 77%
17:00 +27°C° 0.6 mm 2 mps 762 mmHg 79%
18:00 +27°C° 0.6 mm 2 mps 762 mmHg 82%
19:00 +27°C° 0.6 mm 2 mps 763 mmHg 84%
20:00 +26°C° 2.1 mm 2 mps 763 mmHg 86%
21:00 +26°C° 2.1 mm 2 mps 763 mmHg 88%
22:00 +25°C° 2.1 mm 2 mps 763 mmHg 90%
23:00 +25°C° 3 mm 2 mps 762 mmHg 91%

14 August, Friday

Time Temperature Precipitation Wind Pressure Humidity
00:00 +25°C° 3 mm 2 mps 762 mmHg 92%
01:00 +24°C° 3 mm 2 mps 762 mmHg 93%
02:00 +24°C° 1.5 mm 2 mps 762 mmHg 93%
03:00 +24°C° 1.5 mm 2 mps 761 mmHg 92%
04:00 +24°C° 1.5 mm 3 mps 761 mmHg 92%
05:00 +24°C° 0.8 mm 3 mps 761 mmHg 91%
06:00 +24°C° 0.8 mm 3 mps 761 mmHg 91%
07:00 +24°C° 0.8 mm 3 mps 761 mmHg 91%
08:00 +24°C° 0.4 mm 3 mps 762 mmHg 91%
09:00 +24°C° 0.4 mm 3 mps 762 mmHg 91%
10:00 +25°C° 0.4 mm 3 mps 762 mmHg 91%
11:00 +25°C° 0.3 mm 4 mps 762 mmHg 90%
12:00 +25°C° 0.3 mm 4 mps 762 mmHg 89%
13:00 +25°C° 0.3 mm 4 mps 762 mmHg 88%
14:00 +25°C° 0 mm 4 mps 761 mmHg 86%
15:00 +26°C° 0 mm 4 mps 761 mmHg 84%
16:00 +26°C° 0 mm 5 mps 761 mmHg 82%
17:00 +26°C° 0 mm 4 mps 761 mmHg 84%
18:00 +25°C° 0 mm 4 mps 761 mmHg 85%
19:00 +25°C° 0 mm 4 mps 761 mmHg 87%
20:00 +25°C° 0 mm 4 mps 761 mmHg 87%
21:00 +25°C° 0 mm 4 mps 761 mmHg 88%
22:00 +25°C° 0 mm 4 mps 761 mmHg 88%
23:00 +25°C° 0 mm 4 mps 761 mmHg 88%

15 August, Saturday

Time Temperature Precipitation Wind Pressure Humidity
00:00 +23°C° 0 mm 4 mps 761 mmHg 89%
01:00 +23°C° 0 mm 4 mps 761 mmHg 89%
02:00 +23°C° 0 mm 4 mps 760 mmHg 88%
03:00 +23°C° 0 mm 4 mps 760 mmHg 88%
04:00 +23°C° 0 mm 4 mps 760 mmHg 88%
05:00 +23°C° 0.2 mm 4 mps 760 mmHg 88%
06:00 +23°C° 0.2 mm 5 mps 761 mmHg 87%
07:00 +23°C° 0.2 mm 5 mps 761 mmHg 86%
08:00 +23°C° 0.8 mm 5 mps 761 mmHg 86%
09:00 +23°C° 0.8 mm 5 mps 761 mmHg 86%
10:00 +23°C° 0.8 mm 6 mps 761 mmHg 86%
11:00 +23°C° 0.7 mm 6 mps 761 mmHg 85%
12:00 +23°C° 0.7 mm 5 mps 761 mmHg 85%
13:00 +23°C° 0.7 mm 5 mps 761 mmHg 85%
14:00 +22°C° 0 mm 5 mps 761 mmHg 83%
15:00 +22°C° 0 mm 5 mps 761 mmHg 82%
16:00 +22°C° 0 mm 5 mps 761 mmHg 80%
17:00 +22°C° 0 mm 5 mps 761 mmHg 78%
18:00 +22°C° 0 mm 5 mps 761 mmHg 76%
19:00 +22°C° 0 mm 5 mps 761 mmHg 74%
20:00 +22°C° 0 mm 5 mps 762 mmHg 74%
21:00 +22°C° 0 mm 5 mps 762 mmHg 75%
22:00 +22°C° 0 mm 5 mps 762 mmHg 75%
23:00 +22°C° 0 mm 5 mps 762 mmHg 75%

16 August, Sunday

Time Temperature Precipitation Wind Pressure Humidity
00:00 +22°C° 0 mm 5 mps 762 mmHg 75%
01:00 +22°C° 0 mm 6 mps 762 mmHg 74%
02:00 +22°C° 0 mm 6 mps 762 mmHg 74%
03:00 +22°C° 0 mm 6 mps 762 mmHg 74%
04:00 +22°C° 0 mm 6 mps 762 mmHg 73%
05:00 +22°C° 0 mm 6 mps 762 mmHg 74%
06:00 +22°C° 0 mm 6 mps 762 mmHg 75%
07:00 +22°C° 0 mm 6 mps 762 mmHg 75%
08:00 +22°C° 0 mm 5 mps 762 mmHg 73%
09:00 +23°C° 0 mm 5 mps 763 mmHg 71%
10:00 +25°C° 0 mm 5 mps 763 mmHg 68%
11:00 +26°C° 0 mm 5 mps 762 mmHg 66%
12:00 +27°C° 0 mm 5 mps 762 mmHg 63%
13:00 +27°C° 0 mm 5 mps 762 mmHg 60%
14:00 +27°C° 0 mm 5 mps 762 mmHg 61%
15:00 +27°C° 0 mm 5 mps 762 mmHg 62%
16:00 +27°C° 0 mm 5 mps 761 mmHg 64%
17:00 +26°C° 0 mm 5 mps 761 mmHg 66%
18:00 +25°C° 0 mm 4 mps 761 mmHg 69%
19:00 +23°C° 0 mm 4 mps 761 mmHg 71%
20:00 +22°C° 0 mm 4 mps 762 mmHg 74%
21:00 +22°C° 0 mm 3 mps 762 mmHg 76%
22:00 +22°C° 0 mm 3 mps 762 mmHg 79%
23:00 +22°C° 0 mm 3 mps 761 mmHg 81%
Show more